PRIVATE WETTERSTATION BILLIGHEIM-ALLFELD                       ZURCK
Wetterdaten: Samstag, 28.06.2014
Datum Zeit Temp. A. Temp. A. min Temp. A. max Feuchte A. Luftdruck Regen Wind Richtung Richtung Sonnenschein ET Solar Taupunkt Windchill Windben Empfang
28.06.2014 00:00 16,8 C 16,8 C 17,0 C 68 % 1012,7 hPa 0,0 l/m 0,0 km/h (0 Bft) SW 225 0 min 0,025 mm 0 W/m 10,9 C 16,8 C 1,6 km/h (1 Bft) 100 %
28.06.2014 00:10 16,7 C 16,7 C 16,8 C 69 % 1012,7 hPa 0,0 l/m 0,0 km/h (0 Bft) SW 225 0 min 0,000 mm 0 W/m 11,0 C 16,7 C 4,8 km/h (1 Bft) 100 %
28.06.2014 00:20 16,7 C 16,7 C 16,7 C 70 % 1013,0 hPa 0,0 l/m 1,6 km/h (1 Bft) NW 315 0 min 0,000 mm 0 W/m 11,2 C 16,7 C 9,7 km/h (2 Bft) 100 %
28.06.2014 00:30 16,6 C 16,6 C 16,7 C 77 % 1013,6 hPa 1,4 l/m 8,0 km/h (2 Bft) NW 315 0 min 0,000 mm 0 W/m 12,5 C 15,8 C 22,5 km/h (4 Bft) 99 %
28.06.2014 00:40 15,8 C 15,8 C 16,5 C 82 % 1013,2 hPa 1,0 l/m 3,2 km/h (1 Bft) NW 315 0 min 0,000 mm 0 W/m 12,7 C 15,8 C 14,5 km/h (3 Bft) 100 %
28.06.2014 00:50 15,2 C 15,2 C 15,8 C 85 % 1013,1 hPa 0,2 l/m 3,2 km/h (1 Bft) O-SO 112 0 min 0,000 mm 0 W/m 12,7 C 15,2 C 9,7 km/h (2 Bft) 100 %
28.06.2014 01:00 15,6 C 15,1 C 15,6 C 82 % 1013,0 hPa 0,0 l/m 3,2 km/h (1 Bft) O-SO 112 0 min 0,025 mm 0 W/m 12,5 C 15,6 C 8,0 km/h (2 Bft) 100 %
28.06.2014 01:10 15,7 C 15,6 C 15,8 C 85 % 1013,1 hPa 0,0 l/m 1,6 km/h (1 Bft) N-NW 337 0 min 0,000 mm 0 W/m 13,2 C 15,7 C 8,0 km/h (2 Bft) 100 %
28.06.2014 01:20 15,3 C 15,3 C 15,7 C 85 % 1013,0 hPa 0,0 l/m 0,0 km/h (0 Bft) N 360 0 min 0,000 mm 0 W/m 12,8 C 15,3 C 1,6 km/h (1 Bft) 100 %
28.06.2014 01:30 15,1 C 15,1 C 15,3 C 86 % 1013,3 hPa 0,0 l/m 1,6 km/h (1 Bft) NW 315 0 min 0,000 mm 0 W/m 12,8 C 15,1 C 11,3 km/h (2 Bft) 100 %
28.06.2014 01:40 15,0 C 15,0 C 15,1 C 86 % 1014,2 hPa 0,0 l/m 6,4 km/h (2 Bft) NW 315 0 min 0,000 mm 0 W/m 12,7 C 15,0 C 25,7 km/h (4 Bft) 100 %
28.06.2014 01:50 14,8 C 14,8 C 15,0 C 86 % 1014,5 hPa 1,4 l/m 4,8 km/h (1 Bft) NW 315 0 min 0,000 mm 0 W/m 12,5 C 14,8 C 17,7 km/h (3 Bft) 100 %
28.06.2014 02:00 14,6 C 14,6 C 14,8 C 86 % 1014,5 hPa 0,4 l/m 3,2 km/h (1 Bft) N-NW 337 0 min 0,025 mm 0 W/m 12,3 C 14,6 C 8,0 km/h (2 Bft) 100 %
28.06.2014 02:10 14,5 C 14,5 C 14,6 C 86 % 1013,3 hPa 0,6 l/m 0,0 km/h (0 Bft) N-NO 22 0 min 0,000 mm 0 W/m 12,2 C 14,5 C 4,8 km/h (1 Bft) 100 %
28.06.2014 02:20 14,4 C 14,4 C 14,5 C 86 % 1013,4 hPa 0,2 l/m 0,0 km/h (0 Bft) O-SO 112 0 min 0,000 mm 0 W/m 12,1 C 14,4 C 6,4 km/h (2 Bft) 100 %
28.06.2014 02:30 14,3 C 14,3 C 14,4 C 87 % 1013,6 hPa 0,0 l/m 0,0 km/h (0 Bft) W-NW 292 0 min 0,000 mm 0 W/m 12,2 C 14,3 C 4,8 km/h (1 Bft) 100 %
28.06.2014 02:40 14,2 C 14,2 C 14,3 C 86 % 1013,4 hPa 0,0 l/m 0,0 km/h (0 Bft) W-NW 292 0 min 0,000 mm 0 W/m 11,9 C 14,2 C 1,6 km/h (1 Bft) 100 %
28.06.2014 02:50 14,1 C 14,1 C 14,2 C 86 % 1013,5 hPa 0,0 l/m 0,0 km/h (0 Bft) N 360 0 min 0,000 mm 0 W/m 11,8 C 14,1 C 3,2 km/h (1 Bft) 100 %
28.06.2014 03:00 14,0 C 14,0 C 14,1 C 87 % 1013,5 hPa 0,0 l/m 0,0 km/h (0 Bft) N 360 0 min 0,000 mm 0 W/m 11,9 C 14,0 C 4,8 km/h (1 Bft) 100 %
28.06.2014 03:10 13,9 C 13,9 C 14,0 C 87 % 1013,6 hPa 0,0 l/m 0,0 km/h (0 Bft) N-NW 337 0 min 0,000 mm 0 W/m 11,8 C 13,9 C 1,6 km/h (1 Bft) 100 %
28.06.2014 03:20 13,8 C 13,8 C 13,9 C 87 % 1013,6 hPa 0,0 l/m 0,0 km/h (0 Bft) O-SO 112 0 min 0,000 mm 0 W/m 11,7 C 13,8 C 4,8 km/h (1 Bft) 100 %
28.06.2014 03:30 13,8 C 13,8 C 13,8 C 87 % 1013,5 hPa 0,0 l/m 0,0 km/h (0 Bft) O-SO 112 0 min 0,000 mm 0 W/m 11,7 C 13,8 C 1,6 km/h (1 Bft) 100 %
28.06.2014 03:40 13,7 C 13,7 C 13,8 C 87 % 1013,6 hPa 0,0 l/m 0,0 km/h (0 Bft) O-SO 112 0 min 0,000 mm 0 W/m 11,6 C 13,7 C 1,6 km/h (1 Bft) 100 %
28.06.2014 03:50 13,6 C 13,6 C 13,7 C 87 % 1013,5 hPa 0,0 l/m 0,0 km/h (0 Bft) O-SO 112 0 min 0,000 mm 0 W/m 11,5 C 13,6 C 1,6 km/h (1 Bft) 100 %
28.06.2014 04:00 13,4 C 13,4 C 13,6 C 87 % 1013,4 hPa 0,0 l/m 0,0 km/h (0 Bft) O-SO 112 0 min 0,000 mm 0 W/m 11,3 C 13,4 C 1,6 km/h (1 Bft) 100 %
28.06.2014 04:10 13,4 C 13,4 C 13,5 C 87 % 1013,5 hPa 0,0 l/m 0,0 km/h (0 Bft) O-SO 112 0 min 0,000 mm 0 W/m 11,3 C 13,4 C 3,2 km/h (1 Bft) 100 %
28.06.2014 04:20 13,2 C 13,2 C 13,4 C 87 % 1013,4 hPa 0,0 l/m 0,0 km/h (0 Bft) SO 135 0 min 0,000 mm 0 W/m 11,1 C 13,2 C 3,2 km/h (1 Bft) 100 %
28.06.2014 04:30 13,1 C 13,1 C 13,2 C 87 % 1013,6 hPa 0,0 l/m 0,0 km/h (0 Bft) SO 135 0 min 0,000 mm 0 W/m 11,0 C 13,1 C 6,4 km/h (2 Bft) 100 %
28.06.2014 04:40 13,0 C 13,0 C 13,1 C 87 % 1013,5 hPa 0,0 l/m 0,0 km/h (0 Bft) SO 135 0 min 0,000 mm 0 W/m 10,9 C 13,0 C 1,6 km/h (1 Bft) 100 %
28.06.2014 04:50 13,0 C 13,0 C 13,0 C 87 % 1013,5 hPa 0,0 l/m 0,0 km/h (0 Bft) N 0 0 min 0,000 mm 0 W/m 10,9 C 13,0 C 0,0 km/h (0 Bft) 100 %
28.06.2014 05:00 12,9 C 12,9 C 13,0 C 87 % 1013,4 hPa 0,0 l/m 0,0 km/h (0 Bft) N 0 0 min 0,000 mm 0 W/m 10,8 C 12,9 C 0,0 km/h (0 Bft) 100 %
28.06.2014 05:10 12,9 C 12,9 C 12,9 C 87 % 1013,5 hPa 0,0 l/m 0,0 km/h (0 Bft) N 0 0 min 0,000 mm 0 W/m 10,8 C 12,9 C 0,0 km/h (0 Bft) 100 %
28.06.2014 05:20 12,9 C 12,9 C 13,0 C 87 % 1013,5 hPa 0,0 l/m 0,0 km/h (0 Bft) N 0 0 min 0,000 mm 0 W/m 10,8 C 12,9 C 0,0 km/h (0 Bft) 91 %
28.06.2014 05:30 12,9 C 12,9 C 12,9 C 87 % 1013,4 hPa 0,0 l/m 0,0 km/h (0 Bft) N 0 0 min 0,000 mm 0 W/m 10,8 C 12,9 C 0,0 km/h (0 Bft) 100 %
28.06.2014 05:40 13,0 C 12,9 C 13,0 C 87 % 1013,3 hPa 0,0 l/m 0,0 km/h (0 Bft) N 0 0 min 0,000 mm 9 W/m 10,9 C 13,0 C 0,0 km/h (0 Bft) 100 %
28.06.2014 05:50 12,9 C 12,9 C 13,0 C 87 % 1013,2 hPa 0,0 l/m 0,0 km/h (0 Bft) N 0 0 min 0,000 mm 14 W/m 10,8 C 12,9 C 0,0 km/h (0 Bft) 100 %
28.06.2014 06:00 12,9 C 12,9 C 12,9 C 87 % 1013,2 hPa 0,0 l/m 0,0 km/h (0 Bft) N 0 0 min 0,000 mm 19 W/m 10,8 C 12,9 C 0,0 km/h (0 Bft) 100 %
28.06.2014 06:10 12,9 C 12,9 C 13,0 C 87 % 1013,2 hPa 0,0 l/m 0,0 km/h (0 Bft) N 0 0 min 0,000 mm 28 W/m 10,8 C 12,9 C 0,0 km/h (0 Bft) 100 %
28.06.2014 06:20 12,9 C 12,9 C 13,0 C 87 % 1013,2 hPa 0,0 l/m 0,0 km/h (0 Bft) SO 135 0 min 0,000 mm 30 W/m 10,8 C 12,9 C 1,6 km/h (1 Bft) 100 %
28.06.2014 06:30 13,1 C 12,9 C 13,1 C 87 % 1013,2 hPa 0,0 l/m 0,0 km/h (0 Bft) SO 135 0 min 0,000 mm 35 W/m 11,0 C 13,1 C 1,6 km/h (1 Bft) 100 %
28.06.2014 06:40 13,2 C 13,1 C 13,2 C 87 % 1013,1 hPa 0,0 l/m 0,0 km/h (0 Bft) SO 135 0 min 0,000 mm 49 W/m 11,1 C 13,2 C 1,6 km/h (1 Bft) 100 %
28.06.2014 06:50 13,2 C 13,2 C 13,2 C 87 % 1013,1 hPa 0,0 l/m 0,0 km/h (0 Bft) SO 135 0 min 0,000 mm 62 W/m 11,1 C 13,2 C 1,6 km/h (1 Bft) 100 %
28.06.2014 07:00 13,3 C 13,2 C 13,3 C 87 % 1013,1 hPa 0,0 l/m 0,0 km/h (0 Bft) SO 135 0 min 0,025 mm 74 W/m 11,2 C 13,3 C 1,6 km/h (1 Bft) 100 %
28.06.2014 07:10 13,4 C 13,3 C 13,4 C 87 % 1013,1 hPa 0,0 l/m 0,0 km/h (0 Bft) N 0 0 min 0,000 mm 76 W/m 11,3 C 13,4 C 0,0 km/h (0 Bft) 100 %
28.06.2014 07:20 13,7 C 13,4 C 13,7 C 87 % 1013,0 hPa 0,0 l/m 0,0 km/h (0 Bft) SO 135 0 min 0,000 mm 74 W/m 11,6 C 13,7 C 3,2 km/h (1 Bft) 100 %
28.06.2014 07:30 13,8 C 13,7 C 13,8 C 87 % 1013,0 hPa 0,0 l/m 0,0 km/h (0 Bft) N 0 0 min 0,000 mm 104 W/m 11,7 C 13,8 C 0,0 km/h (0 Bft) 100 %
28.06.2014 07:40 13,9 C 13,8 C 13,9 C 87 % 1012,9 hPa 0,0 l/m 0,0 km/h (0 Bft) SO 135 0 min 0,000 mm 109 W/m 11,8 C 13,9 C 1,6 km/h (1 Bft) 100 %
28.06.2014 07:50 14,3 C 13,9 C 14,3 C 87 % 1012,8 hPa 0,0 l/m 0,0 km/h (0 Bft) N 0 0 min 0,000 mm 132 W/m 12,2 C 14,3 C 0,0 km/h (0 Bft) 100 %
28.06.2014 08:00 14,6 C 14,3 C 14,6 C 87 % 1012,7 hPa 0,0 l/m 0,0 km/h (0 Bft) SO 135 0 min 0,051 mm 137 W/m 12,5 C 14,6 C 1,6 km/h (1 Bft) 100 %
28.06.2014 08:10 15,0 C 14,6 C 15,0 C 87 % 1012,9 hPa 0,0 l/m 0,0 km/h (0 Bft) SO 135 0 min 0,000 mm 144 W/m 12,9 C 15,0 C 1,6 km/h (1 Bft) 100 %
28.06.2014 08:20 15,1 C 15,0 C 15,1 C 87 % 1012,9 hPa 0,0 l/m 0,0 km/h (0 Bft) SO 135 10 min 0,000 mm 241 W/m 13,0 C 15,1 C 1,6 km/h (1 Bft) 99 %
28.06.2014 08:30 15,4 C 15,1 C 15,4 C 87 % 1012,8 hPa 0,0 l/m 0,0 km/h (0 Bft) N 0 10 min 0,000 mm 239 W/m 13,2 C 15,4 C 0,0 km/h (0 Bft) 100 %
28.06.2014 08:40 16,2 C 15,5 C 16,2 C 87 % 1012,9 hPa 0,0 l/m 0,0 km/h (0 Bft) SO 135 10 min 0,000 mm 357 W/m 14,0 C 16,2 C 1,6 km/h (1 Bft) 100 %
28.06.2014 08:50 16,6 C 16,2 C 16,6 C 87 % 1012,7 hPa 0,0 l/m 0,0 km/h (0 Bft) S-SO 157 10 min 0,000 mm 320 W/m 14,4 C 16,6 C 1,6 km/h (1 Bft) 100 %
28.06.2014 09:00 16,8 C 16,6 C 16,8 C 87 % 1012,7 hPa 0,0 l/m 0,0 km/h (0 Bft) S-SO 157 10 min 0,127 mm 343 W/m 14,6 C 16,8 C 1,6 km/h (1 Bft) 100 %
28.06.2014 09:10 17,2 C 16,8 C 17,2 C 87 % 1012,8 hPa 0,0 l/m 0,0 km/h (0 Bft) S 180 10 min 0,000 mm 341 W/m 15,0 C 17,2 C 4,8 km/h (1 Bft) 100 %
28.06.2014 09:20 17,3 C 17,2 C 17,3 C 87 % 1012,7 hPa 0,0 l/m 1,6 km/h (1 Bft) S 180 10 min 0,000 mm 332 W/m 15,1 C 17,3 C 6,4 km/h (2 Bft) 100 %
28.06.2014 09:30 17,3 C 17,2 C 17,3 C 87 % 1012,7 hPa 0,0 l/m 0,0 km/h (0 Bft) S 180 10 min 0,000 mm 360 W/m 15,1 C 17,3 C 6,4 km/h (2 Bft) 100 %
28.06.2014 09:40 17,4 C 17,3 C 17,4 C 86 % 1012,7 hPa 0,0 l/m 0,0 km/h (0 Bft) S 180 10 min 0,000 mm 366 W/m 15,0 C 17,4 C 4,8 km/h (1 Bft) 100 %
28.06.2014 09:50 17,6 C 17,4 C 17,6 C 86 % 1012,6 hPa 0,0 l/m 0,0 km/h (0 Bft) S 180 10 min 0,000 mm 260 W/m 15,2 C 17,6 C 4,8 km/h (1 Bft) 100 %
28.06.2014 10:00 17,8 C 17,6 C 17,8 C 85 % 1012,5 hPa 0,0 l/m 0,0 km/h (0 Bft) S-SW 202 10 min 0,152 mm 283 W/m 15,2 C 17,8 C 4,8 km/h (1 Bft) 100 %
28.06.2014 10:10 18,1 C 17,8 C 18,1 C 85 % 1012,5 hPa 0,0 l/m 0,0 km/h (0 Bft) S 180 10 min 0,000 mm 322 W/m 15,5 C 18,1 C 4,8 km/h (1 Bft) 100 %
28.06.2014 10:20 18,3 C 18,1 C 18,3 C 84 % 1012,4 hPa 0,0 l/m 0,0 km/h (0 Bft) S 180 10 min 0,000 mm 408 W/m 15,5 C 18,3 C 6,4 km/h (2 Bft) 100 %
28.06.2014 10:30 18,8 C 18,3 C 18,8 C 82 % 1012,3 hPa 0,0 l/m 1,6 km/h (1 Bft) S-SW 202 10 min 0,000 mm 448 W/m 15,7 C 18,8 C 9,7 km/h (2 Bft) 100 %
28.06.2014 10:40 19,3 C 18,8 C 19,3 C 80 % 1012,3 hPa 0,0 l/m 3,2 km/h (1 Bft) S 180 10 min 0,000 mm 557 W/m 15,8 C 19,3 C 9,7 km/h (2 Bft) 100 %
28.06.2014 10:50 20,0 C 18,8 C 20,0 C 75 % 1012,3 hPa 0,0 l/m 1,9 km/h (1 Bft) SO 138 10 min 0,000 mm 591 W/m 15,4 C 20,0 C 8,0 km/h (2 Bft) 100 %
28.06.2014 11:00 20,3 C 20,0 C 20,3 C 70 % 1012,4 hPa 0,0 l/m 3,2 km/h (1 Bft) S 188 10 min 0,000 mm 471 W/m 14,6 C 20,3 C 11,3 km/h (2 Bft) 100 %
28.06.2014 11:10 20,4 C 20,3 C 20,4 C 73 % 1012,4 hPa 0,0 l/m 4,9 km/h (1 Bft) S-SW 196 10 min 0,230 mm 366 W/m 15,4 C 20,4 C 11,3 km/h (2 Bft) 100 %
28.06.2014 11:20 20,7 C 20,4 C 20,7 C 70 % 1012,5 hPa 0,0 l/m 6,7 km/h (2 Bft) SW 214 10 min 0,000 mm 413 W/m 15,0 C 20,6 C 19,3 km/h (3 Bft) 100 %
28.06.2014 11:30 21,0 C 20,7 C 21,0 C 68 % 1012,6 hPa 0,0 l/m 6,5 km/h (2 Bft) S-SW 207 10 min 0,000 mm 524 W/m 14,9 C 21,0 C 12,9 km/h (3 Bft) 100 %
28.06.2014 11:40 21,5 C 21,0 C 21,5 C 67 % 1012,4 hPa 0,0 l/m 6,1 km/h (2 Bft) S 175 10 min 0,000 mm 499 W/m 15,1 C 21,5 C 16,1 km/h (3 Bft) 100 %
28.06.2014 11:50 21,8 C 21,5 C 21,9 C 63 % 1012,3 hPa 0,0 l/m 3,9 km/h (1 Bft) SW 235 10 min 0,000 mm 357 W/m 14,4 C 21,8 C 17,7 km/h (3 Bft) 100 %
28.06.2014 12:00 21,8 C 21,8 C 21,8 C 65 % 1012,1 hPa 0,0 l/m 5,7 km/h (1 Bft) S-SW 208 10 min 0,000 mm 267 W/m 14,9 C 21,8 C 11,3 km/h (2 Bft) 100 %
28.06.2014 12:10 21,8 C 21,8 C 21,9 C 60 % 1012,0 hPa 0,0 l/m 4,7 km/h (1 Bft) SW 219 10 min 0,279 mm 332 W/m 13,7 C 21,8 C 14,5 km/h (3 Bft) 100 %
28.06.2014 12:20 21,8 C 21,8 C 21,9 C 60 % 1011,9 hPa 0,0 l/m 3,7 km/h (1 Bft) SW 236 10 min 0,001 mm 265 W/m 13,7 C 21,8 C 11,3 km/h (2 Bft) 100 %
28.06.2014 12:30 21,6 C 21,6 C 21,8 C 62 % 1012,0 hPa 0,0 l/m 5,8 km/h (2 Bft) S-SW 209 10 min 0,000 mm 216 W/m 14,0 C 21,6 C 16,1 km/h (3 Bft) 100 %
28.06.2014 12:40 21,1 C 21,1 C 21,6 C 65 % 1012,0 hPa 0,0 l/m 6,1 km/h (2 Bft) S-SW 213 10 min 0,000 mm 213 W/m 14,3 C 21,1 C 17,7 km/h (3 Bft) 100 %
28.06.2014 12:50 20,9 C 20,9 C 21,1 C 69 % 1011,6 hPa 0,0 l/m 1,3 km/h (1 Bft) W 280 10 min 0,000 mm 373 W/m 15,0 C 20,9 C 8,0 km/h (2 Bft) 100 %
28.06.2014 13:00 21,0 C 20,9 C 21,0 C 67 % 1011,7 hPa 0,0 l/m 0,2 km/h (0 Bft) W 273 10 min 0,203 mm 452 W/m 14,6 C 21,0 C 4,8 km/h (1 Bft) 100 %
28.06.2014 13:10 21,3 C 21,0 C 21,3 C 66 % 1011,8 hPa 0,0 l/m 3,0 km/h (1 Bft) W-SW 257 10 min 0,000 mm 346 W/m 14,7 C 21,3 C 9,7 km/h (2 Bft) 100 %
28.06.2014 13:20 21,4 C 21,2 C 21,4 C 69 % 1011,7 hPa 0,0 l/m 1,2 km/h (1 Bft) NW 310 10 min 0,000 mm 309 W/m 15,5 C 21,4 C 6,4 km/h (2 Bft) 100 %
28.06.2014 13:30 21,5 C 21,4 C 21,5 C 68 % 1011,6 hPa 0,0 l/m 0,4 km/h (0 Bft) W-NW 296 10 min 0,000 mm 285 W/m 15,3 C 21,5 C 4,8 km/h (1 Bft) 100 %
28.06.2014 13:40 21,4 C 21,4 C 21,5 C 68 % 1011,5 hPa 0,0 l/m 0,7 km/h (0 Bft) W-NW 300 10 min 0,000 mm 306 W/m 15,2 C 21,4 C 6,4 km/h (2 Bft) 100 %
28.06.2014 13:50 21,2 C 21,2 C 21,4 C 70 % 1011,6 hPa 0,0 l/m 1,4 km/h (1 Bft) W-SW 258 10 min 0,000 mm 285 W/m 15,5 C 21,2 C 8,0 km/h (2 Bft) 100 %
28.06.2014 14:00 21,1 C 21,1 C 21,2 C 72 % 1011,5 hPa 0,0 l/m 0,8 km/h (0 Bft) W 259 10 min 0,203 mm 204 W/m 15,8 C 21,1 C 6,4 km/h (2 Bft) 100 %
28.06.2014 14:10 20,7 C 20,7 C 21,1 C 72 % 1011,5 hPa 0,2 l/m 0,8 km/h (0 Bft) W 259 10 min 0,000 mm 204 W/m 15,5 C 20,7 C 4,8 km/h (1 Bft) 100 %
28.06.2014 14:20 20,4 C 20,4 C 20,7 C 76 % 1011,6 hPa 0,2 l/m 0,4 km/h (0 Bft) W 259 10 min 0,000 mm 186 W/m 16,0 C 20,4 C 4,8 km/h (1 Bft) 100 %
28.06.2014 14:30 20,1 C 20,1 C 20,4 C 77 % 1011,8 hPa 0,0 l/m 1,6 km/h (1 Bft) W-SW 257 10 min 0,000 mm 162 W/m 15,9 C 20,1 C 11,3 km/h (2 Bft) 100 %
28.06.2014 14:40 19,6 C 19,6 C 20,1 C 79 % 1011,3 hPa 0,2 l/m 1,0 km/h (0 Bft) W-SW 254 10 min 0,000 mm 193 W/m 15,9 C 19,6 C 6,4 km/h (2 Bft) 100 %
28.06.2014 14:50 19,0 C 19,0 C 19,6 C 83 % 1010,8 hPa 0,2 l/m 2,0 km/h (1 Bft) S 191 10 min 0,000 mm 202 W/m 16,0 C 19,0 C 8,0 km/h (2 Bft) 100 %
28.06.2014 15:00 18,7 C 18,7 C 19,0 C 83 % 1010,4 hPa 0,0 l/m 0,2 km/h (0 Bft) S-SO 157 10 min 0,127 mm 241 W/m 15,8 C 18,7 C 4,8 km/h (1 Bft) 100 %
28.06.2014 15:10 18,7 C 18,7 C 18,8 C 84 % 1010,5 hPa 0,0 l/m 1,9 km/h (1 Bft) SO 145 10 min 0,000 mm 178 W/m 15,9 C 18,7 C 8,0 km/h (2 Bft) 100 %
28.06.2014 15:20 18,5 C 18,5 C 18,7 C 85 % 1010,5 hPa 0,0 l/m 3,1 km/h (1 Bft) S-SO 150 10 min 0,000 mm 192 W/m 15,9 C 18,5 C 11,3 km/h (2 Bft) 100 %
28.06.2014 15:30 18,4 C 18,4 C 18,6 C 85 % 1010,6 hPa 0,0 l/m 4,8 km/h (1 Bft) S-SO 148 10 min 0,000 mm 188 W/m 15,8 C 18,4 C 9,7 km/h (2 Bft) 100 %
28.06.2014 15:40 18,2 C 18,2 C 18,4 C 85 % 1010,4 hPa 0,0 l/m 6,8 km/h (2 Bft) S-SO 149 10 min 0,000 mm 174 W/m 15,6 C 18,0 C 19,3 km/h (3 Bft) 100 %
28.06.2014 15:50 18,1 C 18,1 C 18,3 C 84 % 1010,5 hPa 0,0 l/m 4,4 km/h (1 Bft) S-SO 164 0 min 0,000 mm 123 W/m 15,4 C 18,1 C 11,3 km/h (2 Bft) 100 %
28.06.2014 16:00 17,9 C 17,9 C 18,1 C 84 % 1010,5 hPa 0,0 l/m 6,3 km/h (2 Bft) S 180 0 min 0,102 mm 149 W/m 15,2 C 17,9 C 20,9 km/h (4 Bft) 100 %
28.06.2014 16:10 17,7 C 17,7 C 17,9 C 85 % 1010,4 hPa 0,2 l/m 5,8 km/h (2 Bft) S-SO 159 0 min 0,000 mm 105 W/m 15,1 C 17,7 C 14,5 km/h (3 Bft) 100 %
28.06.2014 16:20 17,2 C 17,2 C 17,7 C 85 % 1010,3 hPa 0,2 l/m 5,4 km/h (1 Bft) SO 133 0 min 0,000 mm 148 W/m 14,7 C 17,2 C 14,5 km/h (3 Bft) 100 %
28.06.2014 16:30 17,1 C 17,1 C 17,2 C 86 % 1010,1 hPa 0,0 l/m 1,5 km/h (1 Bft) S-SO 147 0 min 0,000 mm 86 W/m 14,7 C 17,1 C 8,0 km/h (2 Bft) 100 %
28.06.2014 16:40 17,1 C 17,0 C 17,1 C 86 % 1009,9 hPa 0,2 l/m 3,2 km/h (1 Bft) SO 136 0 min 0,000 mm 97 W/m 14,7 C 17,1 C 9,7 km/h (2 Bft) 100 %
28.06.2014 16:50 16,9 C 16,9 C 17,1 C 86 % 1009,6 hPa 0,0 l/m 2,2 km/h (1 Bft) SO 131 0 min 0,000 mm 84 W/m 14,5 C 16,9 C 8,0 km/h (2 Bft) 100 %
28.06.2014 17:00 16,8 C 16,8 C 16,9 C 86 % 1009,5 hPa 0,0 l/m 1,2 km/h (1 Bft) O-SO 112 0 min 0,076 mm 76 W/m 14,4 C 16,8 C 6,4 km/h (2 Bft) 100 %
28.06.2014 17:10 16,8 C 16,7 C 16,8 C 86 % 1009,4 hPa 0,0 l/m 1,0 km/h (0 Bft) O-SO 113 0 min 0,000 mm 135 W/m 14,4 C 16,8 C 8,0 km/h (2 Bft) 100 %
28.06.2014 17:20 16,8 C 16,7 C 16,8 C 86 % 1009,2 hPa 0,0 l/m 1,9 km/h (1 Bft) SO 126 0 min 0,000 mm 137 W/m 14,4 C 16,8 C 8,0 km/h (2 Bft) 100 %
28.06.2014 17:30 16,9 C 16,8 C 16,9 C 86 % 1009,1 hPa 0,0 l/m 0,6 km/h (0 Bft) SO 134 10 min 0,000 mm 197 W/m 14,5 C 16,9 C 4,8 km/h (1 Bft) 100 %
28.06.2014 17:40 17,2 C 16,9 C 17,2 C 86 % 1008,8 hPa 0,0 l/m 2,3 km/h (1 Bft) O 89 10 min 0,000 mm 445 W/m 14,8 C 17,2 C 6,4 km/h (2 Bft) 100 %
28.06.2014 17:50 17,9 C 17,2 C 17,9 C 86 % 1008,8 hPa 0,0 l/m 2,3 km/h (1 Bft) SO 131 10 min 0,000 mm 450 W/m 15,5 C 17,9 C 6,4 km/h (2 Bft) 100 %
28.06.2014 18:00 18,2 C 17,9 C 18,2 C 84 % 1008,4 hPa 0,0 l/m 3,3 km/h (1 Bft) SO 143 10 min 0,127 mm 297 W/m 15,4 C 18,2 C 11,3 km/h (2 Bft) 100 %
28.06.2014 18:10 18,2 C 18,2 C 18,3 C 83 % 1008,4 hPa 0,0 l/m 1,5 km/h (1 Bft) SO 138 0 min 0,000 mm 149 W/m 15,3 C 18,2 C 6,4 km/h (2 Bft) 100 %
28.06.2014 18:20 18,3 C 18,2 C 18,3 C 84 % 1008,4 hPa 0,0 l/m 0,2 km/h (0 Bft) SO 138 10 min 0,000 mm 167 W/m 15,5 C 18,3 C 4,8 km/h (1 Bft) 100 %
28.06.2014 18:30 18,3 C 18,2 C 18,3 C 84 % 1008,1 hPa 0,0 l/m 1,2 km/h (1 Bft) SO 132 10 min 0,000 mm 221 W/m 15,5 C 18,3 C 8,0 km/h (2 Bft) 100 %
28.06.2014 18:40 18,4 C 18,3 C 18,4 C 84 % 1007,8 hPa 0,0 l/m 0,4 km/h (0 Bft) SO 132 10 min 0,000 mm 163 W/m 15,6 C 18,4 C 4,8 km/h (1 Bft) 100 %
28.06.2014 18:50 18,4 C 18,4 C 18,4 C 84 % 1007,7 hPa 0,0 l/m 1,3 km/h (1 Bft) SO 134 0 min 0,000 mm 132 W/m 15,6 C 18,4 C 4,8 km/h (1 Bft) 100 %
28.06.2014 19:00 18,4 C 18,4 C 18,4 C 84 % 1007,8 hPa 0,0 l/m 0,2 km/h (0 Bft) SO 130 0 min 0,102 mm 98 W/m 15,6 C 18,4 C 3,2 km/h (1 Bft) 99 %
28.06.2014 19:10 18,3 C 18,3 C 18,4 C 85 % 1007,8 hPa 0,0 l/m 0,1 km/h (0 Bft) SO 130 0 min 0,000 mm 79 W/m 15,7 C 18,3 C 3,2 km/h (1 Bft) 100 %
28.06.2014 19:20 18,3 C 18,3 C 18,4 C 85 % 1007,8 hPa 0,0 l/m 0,0 km/h (0 Bft) SO 130 0 min 0,000 mm 67 W/m 15,7 C 18,3 C 0,0 km/h (0 Bft) 100 %
28.06.2014 19:30 18,4 C 18,3 C 18,4 C 85 % 1007,7 hPa 0,0 l/m 0,0 km/h (0 Bft) SO 130 0 min 0,000 mm 58 W/m 15,8 C 18,4 C 1,6 km/h (1 Bft) 100 %
28.06.2014 19:40 18,3 C 18,3 C 18,4 C 85 % 1007,7 hPa 0,0 l/m 0,0 km/h (0 Bft) SO 130 0 min 0,000 mm 67 W/m 15,7 C 18,3 C 0,0 km/h (0 Bft) 100 %
28.06.2014 19:50 18,3 C 18,3 C 18,3 C 86 % 1007,5 hPa 0,0 l/m 0,0 km/h (0 Bft) SO 130 0 min 0,000 mm 63 W/m 15,9 C 18,3 C 0,0 km/h (0 Bft) 91 %
28.06.2014 20:00 18,2 C 18,2 C 18,3 C 85 % 1007,6 hPa 0,0 l/m 0,0 km/h (0 Bft) SO 130 0 min 0,050 mm 49 W/m 15,6 C 18,2 C 1,6 km/h (1 Bft) 100 %
28.06.2014 20:10 18,1 C 18,1 C 18,2 C 86 % 1007,2 hPa 0,0 l/m 0,0 km/h (0 Bft) SO 130 0 min 0,000 mm 46 W/m 15,7 C 18,1 C 1,6 km/h (1 Bft) 100 %
28.06.2014 20:20 18,0 C 18,0 C 18,1 C 86 % 1007,2 hPa 0,0 l/m 0,0 km/h (0 Bft) SO 130 0 min 0,000 mm 33 W/m 15,6 C 18,0 C 1,6 km/h (1 Bft) 100 %
28.06.2014 20:30 17,9 C 17,9 C 18,0 C 86 % 1007,2 hPa 0,0 l/m 0,3 km/h (0 Bft) SO 130 0 min 0,000 mm 18 W/m 15,5 C 17,9 C 3,2 km/h (1 Bft) 100 %
28.06.2014 20:40 17,8 C 17,8 C 17,9 C 86 % 1007,2 hPa 0,0 l/m 0,0 km/h (0 Bft) SO 130 0 min 0,000 mm 12 W/m 15,4 C 17,8 C 1,6 km/h (1 Bft) 100 %
28.06.2014 20:50 17,7 C 17,7 C 17,8 C 86 % 1007,0 hPa 0,0 l/m 0,0 km/h (0 Bft) SO 130 0 min 0,000 mm 9 W/m 15,3 C 17,7 C 1,6 km/h (1 Bft) 100 %
28.06.2014 21:00 17,6 C 17,6 C 17,7 C 86 % 1006,9 hPa 0,0 l/m 0,1 km/h (0 Bft) SO 130 0 min 0,026 mm 7 W/m 15,2 C 17,6 C 3,2 km/h (1 Bft) 100 %
28.06.2014 21:10 17,6 C 17,6 C 17,6 C 86 % 1006,7 hPa 0,0 l/m 0,0 km/h (0 Bft) SO 135 0 min 0,000 mm 7 W/m 15,2 C 17,6 C 1,6 km/h (1 Bft) 100 %
28.06.2014 21:20 17,4 C 17,4 C 17,6 C 86 % 1006,5 hPa 0,0 l/m 1,6 km/h (1 Bft) SO 135 0 min 0,000 mm 5 W/m 15,0 C 17,4 C 6,4 km/h (2 Bft) 100 %
28.06.2014 21:30 17,3 C 17,3 C 17,4 C 86 % 1006,4 hPa 0,0 l/m 0,0 km/h (0 Bft) SO 135 0 min 0,000 mm 0 W/m 14,9 C 17,3 C 4,8 km/h (1 Bft) 100 %
28.06.2014 21:40 17,3 C 17,2 C 17,3 C 86 % 1006,5 hPa 0,0 l/m 0,0 km/h (0 Bft) SO 135 0 min 0,000 mm 0 W/m 14,9 C 17,3 C 3,2 km/h (1 Bft) 100 %
28.06.2014 21:50 17,2 C 17,2 C 17,3 C 86 % 1006,8 hPa 1,0 l/m 3,2 km/h (1 Bft) SW 225 0 min 0,000 mm 0 W/m 14,8 C 17,2 C 6,4 km/h (2 Bft) 100 %
28.06.2014 22:00 17,2 C 17,2 C 17,2 C 87 % 1007,6 hPa 0,2 l/m 1,6 km/h (1 Bft) N-NW 337 0 min 0,000 mm 0 W/m 15,0 C 17,2 C 6,4 km/h (2 Bft) 100 %
28.06.2014 22:10 17,2 C 17,2 C 17,2 C 87 % 1008,1 hPa 1,6 l/m 0,0 km/h (0 Bft) N-NW 337 0 min 0,000 mm 0 W/m 15,0 C 17,2 C 1,6 km/h (1 Bft) 87 %
28.06.2014 22:20 17,1 C 17,1 C 17,2 C 87 % 1007,9 hPa 3,0 l/m 0,0 km/h (0 Bft) SO 135 0 min 0,000 mm 0 W/m 14,9 C 17,1 C 1,6 km/h (1 Bft) 100 %
28.06.2014 22:30 16,8 C 16,8 C 17,1 C 87 % 1008,2 hPa 7,2 l/m 4,8 km/h (1 Bft) SO 135 0 min 0,000 mm 0 W/m 14,6 C 16,8 C 19,3 km/h (3 Bft) 100 %
28.06.2014 22:40 16,1 C 16,1 C 16,8 C 87 % 1008,5 hPa 12,0 l/m 9,7 km/h (2 Bft) SO 135 0 min 0,000 mm 0 W/m 13,9 C 14,5 C 20,9 km/h (4 Bft) 100 %
28.06.2014 22:50 15,7 C 15,7 C 16,1 C 87 % 1007,5 hPa 0,8 l/m 0,0 km/h (0 Bft) S-SW 202 0 min 0,000 mm 0 W/m 13,5 C 15,7 C 3,2 km/h (1 Bft) 100 %
28.06.2014 23:00 15,6 C 15,6 C 15,7 C 87 % 1007,2 hPa 0,0 l/m 0,0 km/h (0 Bft) SO 135 0 min 0,025 mm 0 W/m 13,4 C 15,6 C 6,4 km/h (2 Bft) 100 %
28.06.2014 23:10 15,3 C 15,3 C 15,6 C 87 % 1007,2 hPa 0,2 l/m 0,0 km/h (0 Bft) SO 135 0 min 0,000 mm 0 W/m 13,1 C 15,3 C 1,6 km/h (1 Bft) 100 %
28.06.2014 23:20 15,1 C 15,1 C 15,3 C 87 % 1007,4 hPa 0,0 l/m 0,0 km/h (0 Bft) SO 135 0 min 0,000 mm 0 W/m 13,0 C 15,1 C 4,8 km/h (1 Bft) 100 %
28.06.2014 23:30 15,1 C 15,1 C 15,1 C 87 % 1007,3 hPa 0,2 l/m 1,6 km/h (1 Bft) SO 135 0 min 0,000 mm 0 W/m 13,0 C 15,1 C 4,8 km/h (1 Bft) 100 %
28.06.2014 23:40 15,1 C 15,1 C 15,1 C 87 % 1007,5 hPa 0,0 l/m 0,0 km/h (0 Bft) SO 135 0 min 0,000 mm 0 W/m 13,0 C 15,1 C 1,6 km/h (1 Bft) 100 %
28.06.2014 23:50 15,1 C 15,1 C 15,1 C 87 % 1007,6 hPa 0,0 l/m 1,6 km/h (1 Bft) SO 135 0 min 0,000 mm 0 W/m 13,0 C 15,1 C 6,4 km/h (2 Bft) 100 %
_ Min-Zeit 05:00 05:00 05:10 12:10 21:30 - 00:00 - - - - - 05:00 05:00 04:50 22:10
Minimum _ 12,9 C 12,9 C 12,9 C 60 % 1006,4 hPa - 0,0 km/h (0 Bft) - - - - - 10,8 C 12,9 C 0,0 km/h (0 Bft) 87 %
_ Max-Zeit 11:50 12:00 11:50 02:30 01:50 22:40 22:40 - - 08:20 12:10 10:50 14:50 11:50 01:40 00:00
Maximum _ 21,9 C 21,8 C 21,9 C 87 % 1014,5 hPa 12,0 l/m 9,7 km/h
SO (2 Bft)
- - 10 min 0,279 mm 591 W/m 16,0 C 21,8 C 25,7 km/h
NW (4 Bft)
100 %
Durchschnitt _ 16,9 C 16,8 C 17,0 C 83 % 1011,1 hPa #32,8 l/m 1,4 km/h (1 Bft) SO - #8:40 h #1,981 mm 203 W/m 13,8 C 16,8 C 6,1 km/h (2 Bft) 100 %
PRIVATE WETTERSTATION BILLIGHEIM-ALLFELD - www.neckar-odenwald-wetter.de - Holger Sonntag